Location: Newark
(42.8481°N, 0.4872°E)
Time: 23:38:36
(UTC+00:00)

Transit 2A - Pass Details

Date: 02 November 2020
Orbit: 595 x 963 km, 66.7° (Epoch: 03 December)

Event Time Altitude Azimuth Distance (km) Brightness Sun altitude
Rises 07:28:25 0° 334° (NNW) 3,462 8.9 8.2°
Reaches altitude 10° 07:31:21 10° 346° (NNW) 2,459 8.2 8.7°
Maximum altitude 07:36:12 29° 45° (NE) 1,421 7.7 9.5°
Drops below altitude 10° 07:40:37 10° 105° (ESE) 2,231 10.3 10.2°
Sets 07:43:09 0° 117° (ESE) 3,086 11.4 10.6°
